Location: Alexandria
(38.8050°N, 77.0470°W)
Time: 02:02:15
(UTC-04:00)

Tiangong 2 - Visible Passes

Search period start: 17 October 2017 00:00
Search period end: 27 October 2017 00:00
Orbit: 388 x 392 km, 42.8° (Epoch: 16 October)

Date Brightness Start Highest point End Pass type
(mag) Time Alt. Az. Time Alt. Az. Time Alt. Az.
17 Oct 3.0 05:18:05 29° NE 05:18:05 29° NE 05:20:01 10° E visible
17 Oct 1.2 06:50:46 10° WNW 06:53:58 72° SSW 06:57:09 10° ESE visible
18 Oct 1.1 05:55:26 50° NW 05:56:07 73° NNE 05:59:19 10° ESE visible
19 Oct 4.1 05:00:30 17° E 05:00:30 17° E 05:01:22 10° E visible
19 Oct 1.9 06:32:51 16° W 06:35:03 38° SSW 06:38:03 10° SE visible
20 Oct 1.9 05:37:58 47° SE 05:37:58 47° SE 05:40:26 10° ESE visible
21 Oct 2.7 06:15:31 20° SW 06:16:00 20° SW 06:18:27 10° SSE visible
22 Oct 4.0 05:20:47 13° SE 05:20:47 13° SE 05:21:12 10° SE visible
